GW0207 Weather Reports


Display with metric or nautical units.
time (UTC)temp
F
wind
direction
speed
MPH
gust
MPH
rain 1hr
in
rain 24hr
in
rain mn
in
humidity
%
barometer
mb
20260906185902 77 235 1.0 4.0 0.01 0.24 0.01 84 1012.8
20260906185405 77 248 1.0 4.0 0.01 0.24 0.01 84 1012.9
20260906184903 78 221 0.0 3.0 0.01 0.24 0.01 85 1012.9
20260906184403 78 268 1.0 5.0 0.01 0.24 0.01 83 1012.9
20260906183903 79 48 2.0 7.0 0.00 0.23 0.00 80 1012.9
20260906183403 80 278 1.0 7.0 0.00 0.23 0.00 78 1012.8
20260906182904 80 228 1.0 4.0 0.00 0.23 0.00 78 1012.8
20260906182403 80 8 1.0 5.0 0.00 0.23 0.00 77 1012.7
20260906181903 80 197 1.0 6.0 0.00 0.23 0.00 80 1012.6
20260906181625 80 260 1.0 6.0 0.00 0.23 0.00 80 1012.6
20260906180903 80 242 1.0 5.0 0.00 0.23 0.00 80 1012.8
20260906180405 80 334 1.0 6.0 0.00 0.23 0.00 79 1012.8
20260906175904 80 254 1.0 6.0 0.00 0.23 0.00 79 1012.8
20260906175403 80 261 0.0 6.0 0.00 0.23 0.00 79 1012.8
20260906174903 80 255 1.0 6.0 0.00 0.23 0.00 79 1012.8
20260906174403 80 297 1.0 4.0 0.00 0.23 0.00 80 1012.9
20260906173905 80 356 1.0 4.0 0.00 0.23 0.00 79 1012.9
20260906173403 80 252 1.0 4.0 0.00 0.23 0.00 81 1012.8
20260906172903 80 243 1.0 8.0 0.00 0.23 0.00 81 1012.7
20260906172403 80 254 1.0 8.0 0.00 0.23 0.00 82 1012.7
20260906171903 80 208 1.0 5.0 0.00 0.23 0.00 82 1012.7
20260906171403 80 294 1.0 5.0 0.00 0.23 0.00 82 1012.8
20260906170903 80 240 0.0 2.0 0.00 0.23 0.00 83 1012.7
20260906170403 80 344 1.0 6.0 0.00 0.23 0.00 83 1012.7
20260906165903 80 195 1.0 6.0 0.00 0.23 0.00 81 1012.7
20260906165629 80 219 1.0 5.0 0.00 0.23 0.00 82 1012.8
20260906164904 80 297 1.0 6.0 0.00 0.23 0.00 83 1012.8
20260906164403 80 235 1.0 6.0 0.00 0.23 0.00 82 1012.9
20260906163902 80 236 1.0 4.0 0.00 0.23 0.00 82 1012.9
20260906163403 80 262 1.0 4.0 0.00 0.23 0.00 84 1012.9
20260906163346 80 282 1.0 6.0 0.00 0.23 0.00 83 1013.0
20260906162405 80 282 1.0 6.0 0.00 0.23 0.00 83 1012.9
20260906161903 80 239 1.0 5.0 0.00 0.23 0.00 83 1013.0
20260906161621 80 202 1.0 6.0 0.00 0.23 0.00 83 1013.0
20260906161131 80 276 1.0 6.0 0.00 0.23 0.00 82 1013.0
20260906160402 80 241 1.0 4.0 0.00 0.23 0.00 82 1013.1
20260906155901 80 328 1.0 4.0 0.00 0.23 0.00 82 1013.2
20260906155620 80 242 1.0 5.0 0.00 0.23 0.00 83 1013.2
20260906154900 79 295 1.0 5.0 0.00 0.23 0.00 84 1013.2
20260906154401 79 255 1.0 5.0 0.00 0.23 0.00 83 1013.2
20260906153901 79 255 1.0 4.0 0.00 0.23 0.00 83 1013.3
20260906153857 79 263 0.0 2.0 0.00 0.23 0.00 84 1013.4
20260906152901 79 231 0.0 2.0 0.00 0.23 0.00 86 1013.3
20260906152400 78 234 1.0 2.0 0.00 0.23 0.00 86 1013.4
20260906151901 78 40 1.0 5.0 0.00 0.23 0.00 86 1013.4
20260906151404 78 2 2.0 6.0 0.00 0.23 0.00 86 1013.4
20260906150903 78 255 1.0 6.0 0.00 0.23 0.00 86 1013.4
20260906150632 78 234 1.0 4.0 0.00 0.23 0.00 88 1013.3
20260906150124 78 37 0.0 2.0 0.00 0.23 0.00 88 1013.3
20260906145403 77 254 0.0 2.0 0.00 0.23 0.00 89 1013.3
20260906145132 77 117 0.0 3.0 0.00 0.23 0.00 90 1013.3
20260906144403 77 254 0.0 3.0 0.00 0.23 0.00 89 1013.3
20260906143903 77 68 0.0 1.0 0.00 0.23 0.00 90 1013.2
20260906143403 77 259 0.0 2.0 0.00 0.23 0.00 90 1013.3
20260906142903 76 258 1.0 3.0 0.00 0.23 0.00 90 1013.2
20260906142354 76 221 1.0 3.0 0.00 0.23 0.00 90 1013.1
20260906142330 77 250 0.0 3.0 0.00 0.23 0.00 90 1013.1
20260906141343 77 79 0.0 3.0 0.00 0.23 0.00 90 1012.9
20260906140839 77 297 0.0 2.0 0.00 0.23 0.00 91 1012.8
20260906140335 76 225 0.0 2.0 0.00 0.23 0.00 92 1012.8
20260906135835 76 280 0.0 3.0 0.00 0.23 0.00 92 1012.7
20260906135333 76 86 0.0 3.0 0.00 0.23 0.00 92 1012.7
20260906134831 76 242 0.0 2.0 0.00 0.23 0.00 93 1012.7
20260906134331 76 82 0.0 3.0 0.00 0.23 0.00 93 1012.7
20260906133832 76 76 0.0 3.0 0.00 0.23 0.00 93 1012.6
20260906133548 76 57 0.0 3.0 0.00 0.23 0.00 93 1012.5
20260906132833 76 237 1.0 3.0 0.00 0.23 0.00 93 1012.5
20260906132331 76 234 1.0 3.0 0.00 0.23 0.00 94 1012.4
20260906131831 75 240 0.0 3.0 0.00 0.23 0.00 95 1012.4
20260906131331 75 252 0.0 4.0 0.00 0.23 0.00 95 1012.4
20260906130833 75 88 0.0 4.0 0.00 0.23 0.00 96 1012.4
20260906130331 74 64 0.0 2.0 0.00 0.23 0.00 96 1012.5
20260906125831 74 237 0.0 2.0 0.00 0.23 0.00 96 1012.5
20260906125330 74 157 0.0 1.0 0.00 0.23 0.00 97 1012.5
20260906124833 73 144 0.0 1.0 0.00 0.23 0.00 97 1012.6
20260906124332 73 242 0.0 1.0 0.00 0.23 0.00 97 1012.5
20260906123830 73 109 0.0 1.0 0.00 0.23 0.00 97 1012.5
20260906123805 73 102 0.0 1.0 0.00 0.23 0.00 97 1012.5
20260906122832 73 192 0.0 0.0 0.00 0.23 0.00 97 1012.4
20260906122331 72 93 0.0 1.0 0.00 0.23 0.00 97 1012.4
20260906122054 72 96 0.0 3.0 0.00 0.23 0.00 97 1012.4
20260906121331 72 142 0.0 3.0 0.00 0.23 0.00 97 1012.4
20260906121049 72 69 0.0 2.0 0.00 0.23 0.00 98 1012.3
20260906120330 72 79 0.0 2.0 0.00 0.23 0.00 98 1012.3
20260906115832 72 248 0.0 1.0 0.00 0.23 0.00 98 1012.2
20260906115331 71 76 0.0 1.0 0.00 0.23 0.00 98 1012.2
20260906114831 71 270 0.0 3.0 0.00 0.23 0.00 98 1012.1
20260906114329 71 86 0.0 3.0 0.00 0.23 0.00 98 1012.1
20260906113828 71 38 0.0 1.0 0.00 0.23 0.00 98 1012.1
20260906113329 71 9 0.0 0.0 0.00 0.23 0.00 98 1012.0
20260906112829 71 29 0.0 1.0 0.00 0.23 0.00 98 1012.1
20260906112330 71 43 0.0 1.0 0.00 0.23 0.00 98 1012.1
20260906111829 71 248 0.0 1.0 0.00 0.23 0.00 98 1012.0
20260906111553 71 249 0.0 1.0 0.00 0.23 0.00 98 1011.9
20260906110830 71 244 0.0 1.0 0.00 0.23 0.00 98 1011.9
20260906110329 71 263 0.0 1.0 0.00 0.23 0.00 98 1011.9
20260906110049 71 298 0.0 1.0 0.00 0.23 0.00 98 1011.8
20260906105329 71 259 0.0 1.0 0.00 0.23 0.00 98 1011.8
20260906104829 71 258 0.0 1.0 0.00 0.23 0.00 98 1011.7
20260906104329 71 259 0.0 1.0 0.00 0.23 0.00 98 1011.6
20260906104048 71 227 0.0 1.0 0.00 0.23 0.00 98 1011.5
20260906103328 71 229 0.0 1.0 0.00 0.23 0.00 98 1011.5
20260906102830 71 245 0.0 1.0 0.00 0.23 0.00 98 1011.4
20260906102329 71 250 0.0 1.0 0.00 0.23 0.00 98 1011.3
20260906101829 72 257 0.0 1.0 0.00 0.23 0.00 98 1011.2
20260906101329 72 244 0.0 1.0 0.00 0.23 0.00 98 1011.2
20260906100829 72 255 0.0 2.0 0.00 0.23 0.00 98 1011.1
20260906100328 72 247 0.0 2.0 0.00 0.23 0.00 98 1011.0
20260906095829 72 230 0.0 3.0 0.00 0.23 0.00 98 1010.9
20260906095330 72 292 0.0 4.0 0.00 0.23 0.00 98 1010.9
20260906094829 72 268 0.0 4.0 0.00 0.23 0.00 98 1011.0
20260906094329 72 62 0.0 3.0 0.00 0.23 0.00 98 1010.8
20260906093829 72 251 0.0 3.0 0.00 0.23 0.00 98 1010.7
20260906093329 72 84 0.0 2.0 0.00 0.23 0.00 98 1010.7
20260906092830 72 334 0.0 2.0 0.00 0.23 0.00 98 1010.6
20260906092329 72 251 0.0 3.0 0.00 0.23 0.00 98 1010.7
20260906092047 72 64 0.0 3.0 0.00 0.23 0.00 98 1010.5
20260906091328 72 200 0.0 2.0 0.00 0.23 0.00 98 1010.4
20260906090833 72 190 0.0 2.0 0.00 0.23 0.00 98 1010.4
20260906090331 72 239 0.0 2.0 0.00 0.23 0.00 98 1010.5
20260906085829 72 198 0.0 3.0 0.00 0.23 0.00 98 1010.5
20260906085329 72 293 0.0 3.0 0.00 0.23 0.00 98 1010.4
20260906084828 72 227 0.0 2.0 0.00 0.23 0.00 98 1010.4
20260906084329 72 244 0.0 2.0 0.00 0.23 0.00 98 1010.4
20260906083829 72 263 0.0 1.0 0.00 0.23 0.00 98 1010.5
20260906083547 72 245 0.0 1.0 0.00 0.23 0.00 98 1010.5
20260906082829 72 191 0.0 1.0 0.00 0.23 0.00 98 1010.5
20260906082328 72 34 0.0 3.0 0.00 0.23 0.00 98 1010.5
20260906081829 72 27 0.0 3.0 0.00 0.23 0.00 98 1010.4
20260906081328 72 72 0.0 1.0 0.00 0.23 0.00 98 1010.3
20260906080828 72 260 0.0 1.0 0.00 0.23 0.00 98 1010.3
20260906080328 72 214 0.0 1.0 0.00 0.23 0.00 98 1010.2
20260906075829 72 74 0.0 1.0 0.00 0.23 0.00 98 1010.2
20260906075329 72 149 0.0 2.0 0.00 0.23 0.00 98 1010.2
20260906074829 72 270 0.0 2.0 0.00 0.23 0.00 98 1010.2
20260906074328 72 259 0.0 1.0 0.00 0.23 0.00 98 1010.0
20260906074046 72 324 0.0 1.0 0.00 0.23 0.00 98 1009.9
20260906073329 72 215 0.0 1.0 0.00 0.23 0.00 98 1009.8
20260906072829 71 173 0.0 2.0 0.00 0.23 0.00 98 1009.8
20260906072329 71 101 0.0 2.0 0.00 0.23 0.00 98 1009.9
20260906071831 71 135 0.0 0.0 0.00 0.23 0.00 98 1009.8
20260906071330 71 243 0.0 0.0 0.00 0.23 0.00 98 1009.8
20260906070829 71 241 0.0 0.0 0.00 0.23 0.00 98 1009.8
20260906070330 71 241 0.0 0.0 0.00 0.23 0.00 98 1009.8
20260906065828 71 241 0.0 0.0 0.00 0.23 0.00 98 1009.8
20260906065329 71 241 0.0 0.0 0.00 0.23 0.00 98 1009.8
20260906064828 71 241 0.0 0.0 0.00 0.23 0.00 98 1009.8
20260906064550 71 241 0.0 0.0 0.00 0.23 0.00 98 1009.9
20260906063830 71 241 0.0 0.0 0.00 0.23 0.00 98 1009.9
20260906063330 71 241 0.0 0.0 0.00 0.23 0.00 98 1010.0
20260906062830 71 241 0.0 0.0 0.00 0.23 0.00 98 1009.9
20260906062330 71 241 0.0 0.0 0.00 0.23 0.00 98 1010.0
20260906061831 71 241 0.0 0.0 0.00 0.23 0.00 98 1010.2
20260906061330 71 241 0.0 0.0 0.00 0.23 0.00 98 1010.0
20260906060829 72 241 0.0 0.0 0.00 0.23 0.00 98 1010.0
20260906060330 71 241 0.0 0.0 0.00 0.23 0.00 98 1010.2
20260906055830 71 241 0.0 0.0 0.00 0.23 0.00 98 1010.0
20260906055331 71 241 0.0 0.0 0.00 0.23 0.00 98 1010.0
20260906054827 71 241 0.0 0.0 0.00 0.23 0.00 97 1010.0
20260906054320 71 241 0.0 0.0 0.00 0.23 0.00 97 1010.2
20260906053815 71 241 0.0 0.0 0.00 0.23 0.00 97 1010.3
20260906053315 71 241 0.0 0.0 0.00 0.23 0.00 97 1010.5
20260906052813 71 241 0.0 0.0 0.00 0.23 0.00 97 1010.5
20260906052311 71 241 0.0 0.0 0.00 0.23 0.00 97 1010.4
20260906051809 71 241 0.0 0.0 0.00 0.23 0.00 97 1010.3
20260906051525 72 241 0.0 0.0 0.00 0.23 0.00 97 1010.5
20260906050807 72 241 0.0 0.0 0.00 0.23 0.00 97 1010.6
20260906050308 72 241 0.0 0.0 0.00 0.23 0.00 97 1010.7
20260906045805 72 241 0.0 0.0 0.00 0.23 0.00 97 1010.5
20260906045306 72 241 0.0 0.0 0.00 0.23 0.00 97 1010.6
20260906044803 72 241 0.0 0.0 0.00 0.23 0.00 97 1010.5
20260906044303 72 241 0.0 0.0 0.00 0.23 0.00 97 1010.6
20260906043802 72 241 0.0 0.0 0.00 0.23 0.00 97 1010.6
20260906043302 72 241 0.0 0.0 0.00 0.23 0.00 97 1010.6
20260906042802 72 241 0.0 0.0 0.00 0.23 0.00 97 1010.5
20260906042302 72 241 0.0 0.0 0.00 0.23 0.00 97 1010.6
20260906041802 72 241 0.0 0.0 0.00 0.23 0.00 97 1010.7
20260906041302 72 241 0.0 0.0 0.00 0.23 0.00 97 1010.8
20260906040801 73 241 0.0 0.0 0.00 0.23 0.00 97 1010.8
20260906040522 73 241 0.0 0.0 0.00 0.23 0.00 97 1010.7
20260906035801 73 241 0.0 0.0 0.00 0.23 0.23 97 1010.7
20260906035306 73 241 0.0 0.0 0.00 0.23 0.23 97 1010.7
20260906034802 73 241 0.0 0.0 0.00 0.23 0.23 97 1010.8
20260906034302 73 241 0.0 0.0 0.00 0.23 0.23 97 1010.8
20260906033802 73 241 0.0 0.0 0.00 0.23 0.23 97 1010.9
20260906033301 73 241 0.0 0.0 0.00 0.23 0.23 97 1010.9
20260906032804 73 241 0.0 0.0 0.00 0.23 0.23 97 1010.9
20260906032306 73 241 0.0 0.0 0.00 0.23 0.23 97 1010.9
20260906031803 73 241 0.0 0.0 0.00 0.23 0.23 97 1011.0
20260906031303 73 241 0.0 0.0 0.00 0.23 0.23 97 1011.0
20260906030803 73 241 0.0 0.0 0.00 0.23 0.23 97 1011.0
20260906030304 73 241 0.0 0.0 0.00 0.23 0.23 97 1010.9
20260906025803 73 241 0.0 0.0 0.00 0.23 0.23 97 1010.9
20260906025306 74 241 0.0 0.0 0.00 0.23 0.23 97 1010.9
20260906025021 74 241 0.0 0.0 0.00 0.23 0.23 97 1011.0
20260906024304 74 241 0.0 0.0 0.00 0.23 0.23 97 1010.9
20260906023804 74 241 0.0 0.0 0.00 0.23 0.23 97 1011.0
20260906023303 74 241 0.0 0.0 0.00 0.23 0.23 97 1010.9
20260906022803 74 241 0.0 1.0 0.00 0.23 0.23 97 1010.9
20260906022307 74 241 0.0 1.0 0.00 0.23 0.23 97 1010.8
20260906021802 74 199 0.0 0.0 0.00 0.23 0.23 97 1011.0
20260906021304 74 199 0.0 1.0 0.00 0.23 0.23 97 1010.9
20260906020803 74 352 0.0 1.0 0.00 0.23 0.23 97 1011.0
20260906020303 74 199 0.0 1.0 0.00 0.23 0.23 97 1010.9
20260906020026 74 198 0.0 0.0 0.00 0.23 0.23 97 1011.0
20260906015305 74 231 0.0 0.0 0.00 0.23 0.23 97 1011.0
20260906014804 74 231 0.0 0.0 0.00 0.23 0.23 97 1011.1
20260906014303 74 231 0.0 0.0 0.00 0.23 0.23 97 1010.9
20260906013803 74 231 0.0 0.0 0.00 0.23 0.23 97 1010.9
20260906013304 74 231 0.0 0.0 0.00 0.23 0.23 97 1011.0
20260906012803 75 231 0.0 0.0 0.00 0.23 0.23 97 1011.0
20260906012306 75 231 0.0 0.0 0.00 0.23 0.23 97 1010.9
20260906011801 75 231 0.0 0.0 0.00 0.23 0.23 97 1010.9
20260906011522 75 231 0.0 0.0 0.00 0.23 0.23 97 1010.9
20260906010800 75 230 0.0 0.0 0.00 0.23 0.23 97 1010.9
20260906010526 75 230 0.0 0.0 0.00 0.23 0.23 97 1010.9
20260906005801 75 231 0.0 1.0 0.00 0.23 0.23 97 1010.7
20260906005300 75 232 0.0 1.0 0.00 0.23 0.23 97 1010.8
20260906005022 75 232 0.0 1.0 0.00 0.23 0.23 97 1010.6
20260906004301 76 227 0.0 1.0 0.00 0.23 0.23 97 1010.6
20260906003801 76 272 0.0 0.0 0.00 0.23 0.23 97 1010.6
20260906003301 76 310 0.0 0.0 0.00 0.23 0.23 97 1010.5
20260906002801 76 310 0.0 0.0 0.00 0.23 0.23 97 1010.5
20260906002301 76 310 0.0 0.0 0.00 0.23 0.23 97 1010.3
20260906001801 76 310 0.0 0.0 0.00 0.23 0.23 97 1010.2
20260906001304 76 310 0.0 0.0 0.00 0.23 0.23 97 1010.0
20260906000803 76 310 0.0 0.0 0.00 0.23 0.23 97 1009.8
20260906000304 76 310 0.0 1.0 0.00 0.23 0.23 97 1009.7
20260905235804 76 288 0.0 1.0 0.00 0.23 0.23 97 1009.5
20260905235306 76 230 0.0 0.0 0.00 0.23 0.23 97 1009.5
20260905234804 76 230 0.0 0.0 0.00 0.23 0.23 97 1009.3
20260905234303 76 230 0.0 0.0 0.00 0.23 0.23 97 1009.2
20260905233806 76 230 0.0 0.0 0.00 0.23 0.23 97 1009.2
20260905233303 76 230 0.0 0.0 0.00 0.23 0.23 96 1009.3
20260905232803 76 229 0.0 0.0 0.00 0.23 0.23 97 1009.3
20260905232306 76 229 0.0 0.0 0.00 0.23 0.23 97 1009.3
20260905231803 76 229 0.0 0.0 0.00 0.23 0.23 97 1009.3
20260905231303 76 229 0.0 1.0 0.00 0.23 0.23 97 1009.2
20260905230803 76 229 0.0 1.0 0.00 0.23 0.23 97 1009.0
20260905230303 76 166 0.0 0.0 0.00 0.23 0.23 97 1008.8
20260905225803 76 166 0.0 0.0 0.00 0.23 0.23 97 1008.9
20260905225305 76 165 0.0 0.0 0.00 0.23 0.23 97 1009.0
20260905224804 76 165 0.0 1.0 0.00 0.23 0.23 97 1008.8
20260905224303 76 165 0.0 1.0 0.00 0.23 0.23 97 1008.9
20260905223804 75 165 0.0 0.0 0.00 0.23 0.23 96 1008.8
20260905223303 76 165 0.0 0.0 0.00 0.23 0.23 97 1008.8
20260905222803 76 165 0.0 0.0 0.00 0.23 0.23 97 1008.8
20260905222306 75 165 0.0 0.0 0.00 0.23 0.23 97 1008.8
20260905221803 75 165 0.0 0.0 0.00 0.23 0.23 96 1008.9
20260905221304 75 165 0.0 0.0 0.00 0.23 0.23 96 1008.9
20260905221028 75 165 0.0 0.0 0.00 0.23 0.23 97 1008.8
20260905220303 75 171 0.0 0.0 0.00 0.23 0.23 97 1008.8
20260905215805 75 164 0.0 1.0 0.00 0.23 0.23 97 1008.9
20260905215305 75 164 0.0 1.0 0.00 0.23 0.23 96 1008.6
20260905214804 75 164 0.0 0.0 0.00 0.23 0.23 96 1008.7
20260905214304 75 164 0.0 0.0 0.00 0.23 0.23 96 1008.7
20260905213803 75 164 0.0 1.0 0.00 0.23 0.23 96 1008.8
20260905213303 75 164 0.0 1.0 0.00 0.23 0.23 96 1008.7
20260905212803 75 167 0.0 0.0 0.00 0.23 0.23 96 1008.6
20260905212306 74 166 0.0 0.0 0.00 0.23 0.23 96 1008.7
20260905211804 75 166 0.0 0.0 0.00 0.23 0.23 96 1008.7
20260905211531 74 166 0.0 0.0 0.00 0.23 0.23 96 1008.6
20260905211021 74 166 0.0 0.0 0.00 0.23 0.23 96 1008.3
20260905210303 74 166 0.0 1.0 0.00 0.23 0.23 96 1008.3
20260905205804 74 235 0.0 1.0 0.00 0.23 0.23 96 1008.3
20260905205306 74 241 0.0 0.0 0.00 0.23 0.23 96 1008.4
20260905204802 74 241 0.0 0.0 0.00 0.23 0.23 96 1008.4
20260905204303 74 241 0.0 1.0 0.00 0.23 0.23 96 1008.5
20260905203802 74 241 0.0 1.0 0.00 0.23 0.23 96 1008.5
20260905203305 74 242 0.0 1.0 0.03 0.23 0.23 96 1008.6
20260905202804 74 240 0.0 1.0 0.15 0.23 0.23 96 1008.6
20260905202306 74 238 0.0 1.0 0.22 0.23 0.23 96 1008.6
20260905201802 74 239 0.0 1.0 0.23 0.23 0.23 95 1008.9
20260905201302 74 240 0.0 2.0 0.23 0.23 0.23 95 1009.0
20260905200803 74 236 0.0 2.0 0.23 0.23 0.23 95 1009.2
20260905200519 73 313 0.0 1.0 0.23 0.23 0.23 95 1009.1
20260905195803 73 322 0.0 1.0 0.23 0.23 0.23 94 1008.8
20260905195306 73 237 0.0 1.0 0.23 0.23 0.23 94 1008.8
20260905194803 74 241 0.0 3.0 0.23 0.23 0.23 93 1009.0
20260905194304 74 268 1.0 3.0 0.23 0.23 0.23 92 1009.3
20260905193801 75 226 1.0 5.0 0.23 0.23 0.23 90 1009.5
20260905193301 76 227 1.0 5.0 0.20 0.20 0.21 87 1010.0
20260905192800 77 19 2.0 13.0 0.08 0.08 0.09 82 1010.9
20260905192522 79 62 3.0 16.0 0.01 0.01 0.01 77 1010.6
20260905192028 82 86 4.0 16.0 0.00 0.00 0.00 71 1009.9
20260905191301 84 81 4.0 14.0 0.00 0.00 0.00 66 1009.1
20260905190802 88 93 3.0 14.0 0.00 0.00 0.00 62 1008.9
20260905190300 91 52 2.0 10.0 0.00 0.00 0.00 61 1009.1